Williston, ND

10:09 AM CDT on April 23, 2017 (GMT -0500)
Sloulin International

Weather History for KISN - July, 2013

Change the Weather History Date:

Friday, July 26, 2013

  Actual Average Record
Temperature  
Mean Temperature 58 °F 72 °F  
Max Temperature 70 °F 86 °F 104 °F (1929)
Min Temperature 46 °F 57 °F 42 °F (1967)
Degree Days  
Heating Degree Days 7 0  
Month to date heating degree days 16 21  
Since 1 June heating degree days 144 141  
Since 1 July heating degree days 16 21  
Cooling Degree Days 0 7  
Month to date cooling degree days 124 147  
Year to date cooling degree days 159 228  
Since 1 June cooling degree days 151 215  
Growing Degree Days 8 (Base 50)    
Moisture  
Dew Point 46 °F    
Average Humidity 65    
Maximum Humidity 93    
Minimum Humidity 37    
Precipitation  
Precipitation 0.00 in 0.06 in 1.70 in (1938)
Month to date precipitation 1.75 2.23  
Year to date precipitation 13.72 9.36  
Snow  
Snow 0.00 in - - ()
Month to date snowfall 0.0  
Since 1 June snowfall 0.0  
Snow Depth 0.00 in    
Sea Level Pressure  
Sea Level Pressure 30.31 in    
Wind  
Wind Speed 8 mph (NE)    
Max Wind Speed 16 mph    
Max Gust Speed 18 mph    
Visibility 10 miles    
Events      
T = Trace of Precipitation, MM = Missing Value Source: NWS Daily Summary

Daily Weather History Graph

Daily Weather History Graph

Search for Another Location

Airport or City:

Trip Planner

Search our weather history database for the weather conditions in past years. The results will help you decide how hot, cold, wet, or windy it might be!

Date:

Astronomy

Jul. 26, 2013 Rise Set
Actual Time 6:22 AM CDT 9:38 PM CDT
Civil Twilight 5:45 AM CDT 10:15 PM CDT
Nautical Twilight 4:55 AM CDT 11:04 PM CDT
Astronomical Twilight 3:52 AM CDT 12:07 AM CDT
Moon 11:24 PM CDT (7/26) 11:28 AM CDT (7/26)
Length of Visible Light 16h 30m
Length of Day
15h 15m
Waning Gibbous, 80% of the Moon is Illuminated
Jul 26
Waning Gibbous
Jul 29
Last Quarter
Aug 6
New
Aug 14
First Quarter
Aug 20
Full

Hourly Weather History & Observations

Time (CDT) Temp. Dew Point Humidity Pressure Visibility Wind Dir Wind Speed Gust Speed Precip Events Conditions
12:52 AM 52.0 °F 48.9 °F 89% 30.27 in 10.0 mi North 8.1 mph - N/A   Clear
1:49 AM 51.8 °F 48.2 °F 88% 30.28 in 10.0 mi North 8.1 mph - N/A   Mostly Cloudy
1:52 AM 52.0 °F 48.9 °F 89% 30.29 in 10.0 mi North 8.1 mph - N/A   Scattered Clouds
2:52 AM 50.0 °F 48.0 °F 93% 30.30 in 10.0 mi NNE 5.8 mph - N/A   Clear
3:52 AM 48.9 °F 46.9 °F 93% 30.30 in 10.0 mi North 9.2 mph - N/A   Scattered Clouds
4:23 AM 50.0 °F 46.4 °F 87% 30.29 in 10.0 mi NNE 5.8 mph - N/A   Mostly Cloudy
4:52 AM 50.0 °F 46.9 °F 89% 30.30 in 10.0 mi NNE 8.1 mph - N/A   Overcast
5:12 AM 48.2 °F 46.4 °F 93% 30.30 in 10.0 mi NNE 6.9 mph - N/A   Scattered Clouds
5:52 AM 46.9 °F 45.0 °F 93% 30.34 in 10.0 mi North 4.6 mph - N/A   Partly Cloudy
6:52 AM 46.9 °F 45.0 °F 93% 30.33 in 10.0 mi NE 9.2 mph - N/A   Clear
7:05 AM 48.2 °F 44.6 °F 87% 30.32 in 10.0 mi NNE 9.2 mph - N/A   Partly Cloudy
7:21 AM 48.2 °F 46.4 °F 93% 30.33 in 10.0 mi NE 9.2 mph - N/A   Mostly Cloudy
7:31 AM 48.2 °F 46.4 °F 93% 30.34 in 10.0 mi NE 8.1 mph - N/A   Mostly Cloudy
7:52 AM 50.0 °F 48.0 °F 93% 30.36 in 10.0 mi NNE 6.9 mph - N/A   Overcast
8:52 AM 52.0 °F 48.0 °F 86% 30.36 in 10.0 mi NE 5.8 mph - N/A   Overcast
9:26 AM 55.4 °F 48.2 °F 77% 30.35 in 10.0 mi NE 8.1 mph - N/A   Scattered Clouds
9:33 AM 55.4 °F 48.2 °F 77% 30.34 in 10.0 mi North 6.9 mph - N/A   Mostly Cloudy
9:40 AM 55.4 °F 48.2 °F 77% 30.35 in 10.0 mi NNE 5.8 mph - N/A   Scattered Clouds
9:50 AM 57.2 °F 48.2 °F 72% 30.35 in 10.0 mi NNE 5.8 mph - N/A   Mostly Cloudy
9:52 AM 57.0 °F 48.9 °F 74% 30.36 in 10.0 mi NNE 5.8 mph - N/A   Mostly Cloudy
9:58 AM 57.2 °F 48.2 °F 72% 30.35 in 10.0 mi NNE 6.9 mph - N/A   Scattered Clouds
10:52 AM 61.0 °F 48.9 °F 64% 30.36 in 10.0 mi ENE 4.6 mph - N/A   Scattered Clouds
11:52 AM 63.0 °F 46.0 °F 54% 30.35 in 10.0 mi ENE 8.1 mph - N/A   Partly Cloudy
12:52 PM 64.9 °F 44.1 °F 47% 30.33 in 10.0 mi Variable 3.5 mph - N/A   Clear
1:52 PM 68.0 °F 45.0 °F 43% 30.31 in 10.0 mi ENE 6.9 mph - N/A   Scattered Clouds
2:52 PM 69.1 °F 45.0 °F 42% 30.30 in 10.0 mi ESE 6.9 mph - N/A   Mostly Cloudy
3:52 PM 69.1 °F 44.1 °F 40% 30.30 in 10.0 mi NE 9.2 mph - N/A   Scattered Clouds
4:52 PM 66.9 °F 42.1 °F 40% 30.28 in 10.0 mi ENE 9.2 mph - N/A   Scattered Clouds
5:52 PM 69.1 °F 43.0 °F 39% 30.28 in 10.0 mi East 10.4 mph 18.4 mph N/A   Partly Cloudy
6:52 PM 69.1 °F 43.0 °F 39% 30.27 in 10.0 mi ENE 9.2 mph - N/A   Partly Cloudy
7:52 PM 66.0 °F 43.0 °F 43% 30.26 in 10.0 mi East 13.8 mph - N/A   Partly Cloudy
8:52 PM 64.0 °F 44.1 °F 48% 30.26 in 10.0 mi East 9.2 mph - N/A   Clear
9:52 PM 59.0 °F 45.0 °F 60% 30.27 in 10.0 mi East 8.1 mph - N/A   Clear
10:52 PM 55.9 °F 44.1 °F 64% 30.27 in 10.0 mi East 8.1 mph - N/A   Clear
11:52 PM 54.0 °F 44.1 °F 69% 30.27 in 10.0 mi ENE 6.9 mph - N/A   Clear